Change the Weather History Date:

Thursday, July 25, 2013

  Actual Average Record
Temperature  
Mean Temperature 73 °F -  
Max Temperature 80 °F 84 °F 102 °F (2012)
Min Temperature 66 °F 66 °F -99 °F (2000)
Cooling Degree Days 8    
Growing Degree Days 23 (Base 50)    
Moisture  
Dew Point 65 °F    
Average Humidity 77    
Maximum Humidity 100    
Minimum Humidity 54    
Precipitation  
Precipitation 0.01 in - - ()
Sea Level Pressure  
Sea Level Pressure 30.03 in    
Wind  
Wind Speed 7 mph (South)    
Max Wind Speed 17 mph    
Max Gust Speed 25 mph    
Visibility 10 miles    
Events Rain    
Averages and records for this station are not official NWS values.
T = Trace of Precipitation, MM = Missing Value Source: NWS Daily Summary

Daily Weather History Graph

Daily Weather History Graph

Search for Another Location

Airport or City:

Trip Planner

Search our weather history database for the weather conditions in past years. The results will help you decide how hot, cold, wet, or windy it might be!

Date:

Astronomy

Jul. 25, 2013 Rise Set
Actual Time 6:11 AM CDT 8:46 PM CDT
Civil Twilight 5:40 AM CDT 9:18 PM CDT
Nautical Twilight 5:00 AM CDT 9:57 PM CDT
Astronomical Twilight 4:15 AM CDT 10:42 PM CDT
Moon 10:24 PM CDT (7/25) 9:45 AM CDT (7/25)
Length of Visible Light 15h 38m
Length of Day
14h 34m
Waning Gibbous, 88% of the Moon is Illuminated
Jul 25
Waning Gibbous
Jul 29
Last Quarter
Aug 6
New
Aug 14
First Quarter
Aug 20
Full

Hourly Weather History & Observations

Time (CDT) Temp. Heat Index Dew Point Humidity Pressure Visibility Wind Dir Wind Speed Gust Speed Precip Events Conditions
12:15 AM 68.0 °F - 62.6 °F 83% 30.05 in 10.0 mi South 3.5 mph - N/A   Clear
12:35 AM 68.0 °F - 62.6 °F 83% 30.04 in 10.0 mi SSE 3.5 mph - N/A   Clear
12:55 AM 68.0 °F - 62.6 °F 83% 30.05 in 10.0 mi South 5.8 mph - N/A   Clear
1:15 AM 68.0 °F - 62.6 °F 83% 30.05 in 10.0 mi South 5.8 mph - N/A   Clear
1:35 AM 66.2 °F - 64.4 °F 94% 30.05 in 10.0 mi South 4.6 mph - N/A   Clear
1:55 AM 68.0 °F - 62.6 °F 83% 30.06 in 10.0 mi South 5.8 mph - N/A   Clear
2:15 AM 66.2 °F - 64.4 °F 94% 30.06 in 10.0 mi South 5.8 mph - N/A   Mostly Cloudy
2:35 AM 68.0 °F - 64.4 °F 88% 30.06 in 10.0 mi SE 5.8 mph - N/A   Overcast
2:55 AM 68.0 °F - 62.6 °F 83% 30.05 in 10.0 mi SSE 6.9 mph - N/A   Mostly Cloudy
3:15 AM 66.2 °F - 64.4 °F 94% 30.05 in 10.0 mi SSE 5.8 mph - N/A   Overcast
3:35 AM 68.0 °F - 62.6 °F 83% 30.05 in 10.0 mi South 6.9 mph - N/A   Overcast
3:55 AM 68.0 °F - 62.6 °F 83% 30.05 in 10.0 mi SSE 6.9 mph - N/A   Overcast
4:15 AM 68.0 °F - 62.6 °F 83% 30.05 in 10.0 mi South 5.8 mph - N/A   Overcast
4:35 AM 68.0 °F - 62.6 °F 83% 30.05 in 10.0 mi SSE 6.9 mph - N/A   Overcast
4:55 AM 68.0 °F - 62.6 °F 83% 30.05 in 10.0 mi South 5.8 mph - N/A   Overcast
5:15 AM 68.0 °F - 62.6 °F 83% 30.05 in 10.0 mi South 4.6 mph - N/A   Overcast
5:35 AM 68.0 °F - 62.6 °F 83% 30.05 in 10.0 mi SSW 4.6 mph - N/A   Overcast
5:55 AM 68.0 °F - 62.6 °F 83% 30.05 in 10.0 mi SSW 5.8 mph - N/A   Overcast
6:15 AM 68.0 °F - 62.6 °F 83% 30.05 in 10.0 mi South 4.6 mph - N/A   Overcast
6:35 AM 68.0 °F - 62.6 °F 83% 30.04 in 10.0 mi South 4.6 mph - N/A   Mostly Cloudy
6:55 AM 68.0 °F - 62.6 °F 83% 30.05 in 10.0 mi South 3.5 mph - N/A   Overcast
7:15 AM 69.8 °F - 62.6 °F 78% 30.05 in 10.0 mi South 5.8 mph - N/A   Overcast
7:35 AM 69.8 °F - 62.6 °F 78% 30.05 in 10.0 mi SE 4.6 mph - N/A   Mostly Cloudy
7:55 AM 68.0 °F - 64.4 °F 88% 30.05 in 10.0 mi SE 4.6 mph - N/A   Mostly Cloudy
8:15 AM 69.8 °F - 64.4 °F 83% 30.05 in 10.0 mi South 6.9 mph - N/A   Scattered Clouds
8:35 AM 69.8 °F - 64.4 °F 83% 30.05 in 10.0 mi South 5.8 mph - N/A   Mostly Cloudy
8:55 AM 71.6 °F - 64.4 °F 78% 30.05 in 10.0 mi South 6.9 mph - N/A   Scattered Clouds
9:15 AM 71.6 °F - 64.4 °F 78% 30.06 in 10.0 mi South 6.9 mph - N/A   Mostly Cloudy
9:35 AM 73.4 °F - 64.4 °F 73% 30.05 in 10.0 mi South 9.2 mph - N/A   Mostly Cloudy
9:55 AM 75.2 °F - 66.2 °F 73% 30.05 in 10.0 mi South 9.2 mph - N/A   Partly Cloudy
10:15 AM 77.0 °F - 66.2 °F 69% 30.04 in 10.0 mi SSW 12.7 mph 19.6 mph N/A   Partly Cloudy
10:35 AM 77.0 °F - 64.4 °F 65% 30.04 in 10.0 mi South 10.4 mph 17.3 mph N/A   Partly Cloudy
10:55 AM 78.8 °F - 66.2 °F 65% 30.04 in 10.0 mi South 10.4 mph - N/A   Partly Cloudy
11:15 AM 77.0 °F - 66.2 °F 69% 30.04 in 10.0 mi South 10.4 mph - N/A   Partly Cloudy
11:35 AM 80.6 °F 82.7 °F 66.2 °F 61% 30.03 in 10.0 mi SSW 12.7 mph - N/A   Clear
11:55 AM 80.6 °F 82.7 °F 66.2 °F 61% 30.03 in 10.0 mi SSW 8.1 mph 16.1 mph N/A   Clear
12:15 PM 78.8 °F - 66.2 °F 65% 30.03 in 10.0 mi SSW 11.5 mph - N/A   Clear
12:35 PM 77.0 °F - 66.2 °F 69% 30.03 in 10.0 mi South 6.9 mph - N/A   Clear
12:55 PM 78.8 °F - 66.2 °F 65% 30.03 in 10.0 mi SW 5.8 mph - N/A   Partly Cloudy
1:15 PM 78.8 °F - 66.2 °F 65% 30.03 in 10.0 mi South 8.1 mph - N/A   Partly Cloudy
1:35 PM 78.8 °F - 66.2 °F 65% 30.03 in 10.0 mi SSE 5.8 mph - N/A   Partly Cloudy
1:55 PM 78.8 °F - 66.2 °F 65% 30.03 in 10.0 mi SSW 9.2 mph - N/A   Partly Cloudy
2:15 PM 78.8 °F - 68.0 °F 69% 30.03 in 10.0 mi SSW 11.5 mph - N/A   Mostly Cloudy
2:35 PM 78.8 °F - 69.8 °F 74% 30.03 in 10.0 mi South 8.1 mph - N/A   Partly Cloudy
2:55 PM 78.8 °F - 69.8 °F 74% 30.02 in 10.0 mi SSW 12.7 mph - N/A   Clear
3:15 PM 80.6 °F 83.9 °F 69.8 °F 70% 30.01 in 10.0 mi SSW 15.0 mph 20.7 mph N/A   Scattered Clouds
3:35 PM 80.6 °F 83.2 °F 68.0 °F 65% 30.02 in 10.0 mi SSW 15.0 mph 21.9 mph N/A   Partly Cloudy
3:55 PM 80.6 °F 83.2 °F 68.0 °F 65% 30.02 in 10.0 mi SW 17.3 mph 23.0 mph N/A   Scattered Clouds
4:15 PM 80.6 °F 83.2 °F 68.0 °F 65% 30.01 in 10.0 mi SSW 15.0 mph - N/A   Clear
4:35 PM 78.8 °F - 66.2 °F 65% 30.01 in 10.0 mi SSW 11.5 mph 19.6 mph N/A   Clear
4:55 PM 78.8 °F - 62.6 °F 57% 30.00 in 10.0 mi SSW 17.3 mph 25.3 mph N/A   Clear
5:15 PM 78.8 °F - 60.8 °F 54% 30.00 in 10.0 mi SW 16.1 mph 21.9 mph N/A   Clear
5:35 PM 77.0 °F - 60.8 °F 57% 30.00 in 10.0 mi SSW 13.8 mph - N/A   Partly Cloudy
5:55 PM 77.0 °F - 62.6 °F 61% 30.00 in 10.0 mi SSW 16.1 mph - N/A   Clear
6:15 PM 77.0 °F - 64.4 °F 65% 30.00 in 10.0 mi SSW 12.7 mph 18.4 mph N/A   Clear
6:35 PM 75.2 °F - 64.4 °F 69% 29.99 in 10.0 mi SSW 15.0 mph - N/A   Clear
6:55 PM 73.4 °F - 66.2 °F 78% 29.99 in 10.0 mi SSW 11.5 mph - N/A   Clear
7:15 PM 73.4 °F - 66.2 °F 78% 30.00 in 10.0 mi SSW 10.4 mph - N/A   Scattered Clouds
7:35 PM 73.4 °F - 68.0 °F 83% 30.01 in 10.0 mi SSW 10.4 mph - N/A   Mostly Cloudy
7:55 PM 73.4 °F - 68.0 °F 83% 30.02 in 10.0 mi South 9.2 mph - N/A   Partly Cloudy
8:15 PM 73.4 °F - 68.0 °F 83% 30.02 in 10.0 mi SSW 6.9 mph - N/A   Scattered Clouds
8:35 PM 73.4 °F - 66.2 °F 78% 30.02 in 10.0 mi SSW 9.2 mph - N/A   Mostly Cloudy
8:55 PM 71.6 °F - 66.2 °F 83% 30.02 in 10.0 mi SSW 8.1 mph - N/A Rain Light Rain
9:15 PM 71.6 °F - 66.2 °F 83% 30.02 in 10.0 mi SSW 8.1 mph - N/A   Light Drizzle
9:35 PM 69.8 °F - 66.2 °F 88% 30.02 in 9.0 mi SSW 6.9 mph - N/A   Light Drizzle
9:55 PM 69.8 °F - 66.2 °F 88% 30.02 in 10.0 mi South 6.9 mph - 0.01 in   Overcast
10:15 PM 69.8 °F - 66.2 °F 88% 30.02 in 10.0 mi South 3.5 mph - N/A   Mostly Cloudy
10:35 PM 69.8 °F - 66.2 °F 88% 30.02 in 10.0 mi South 3.5 mph - N/A   Mostly Cloudy
10:55 PM 69.8 °F - 66.2 °F 88% 30.02 in 10.0 mi SSW 4.6 mph - N/A   Mostly Cloudy
11:15 PM 69.8 °F - 66.2 °F 88% 30.01 in 10.0 mi SW 5.8 mph - N/A   Scattered Clouds
11:35 PM 69.8 °F - 66.2 °F 88% 30.01 in 10.0 mi SSW 6.9 mph - N/A   Partly Cloudy
11:55 PM 68.0 °F - 68.0 °F 100% 30.00 in 10.0 mi SSW 4.6 mph - N/A   Partly Cloudy